Location: ?????
(42.2640°N, 43.4211°E)
Time: 14:45:40
(UTC+00:00)

DEBRIS - Pass Details

Date: 07 August 2020
Orbit: 294 x 15239 km, 49.4° (Epoch: 19 September)

Event Time Altitude Azimuth Distance (km) Brightness Sun altitude
Exits shadow 01:05:11 17° 233° (SW) 1,060 3.6 -10.6°
Maximum altitude 01:07:01 74° 150° (SSE) 328 1.7 -10.3°
Drops below altitude 10° 01:09:05 10° 63° (ENE) 1,163 6.1 -10.0°
Sets 01:10:56 0° 62° (ENE) 2,141 8.2 -9.7°
